EW2327 Weather Reports


Display with metric or nautical units.
time (UTC)temp
F
wind
direction
speed
MPH
gust
MPH
rain 1hr
in
rain 24hr
in
rain mn
in
humidity
%
barometer
mb
20260506101519 74 149 3.0 7.0 0.00 0.00 0.00 89 1004.2
20260506100018 74 200 2.0 5.0 0.00 0.00 0.00 88 1004.2
20260506094520 74 186 3.0 11.0 0.00 0.00 0.00 88 1004.1
20260506093018 74 167 3.0 8.0 0.00 0.00 0.00 88 1003.9
20260506091518 74 172 2.0 9.0 0.00 0.00 0.00 88 1003.8
20260506090019 74 183 3.0 5.0 0.00 0.00 0.00 88 1003.8
20260506084515 74 167 3.0 8.0 0.00 0.00 0.00 88 1003.7
20260506083015 74 197 4.0 12.0 0.00 0.00 0.00 88 1003.7
20260506081513 74 176 3.0 14.0 0.00 0.00 0.00 88 1003.7
20260506073007 74 175 3.0 10.0 0.00 0.00 0.00 88 1004.1
20260506071505 75 166 5.0 10.0 0.00 0.00 0.00 87 1004.4
20260506061603 75 182 4.0 9.0 0.00 0.00 0.00 86 1004.4
20260506050106 75 183 5.0 9.0 0.00 0.00 0.00 85 1004.6
20260506044552 76 156 5.0 11.0 0.00 0.00 0.00 85 1004.6
20260506043054 76 217 4.0 10.0 0.00 0.00 0.00 85 1004.5
20260506041550 76 192 2.0 8.0 0.00 0.00 0.00 84 1004.3
20260506040051 76 156 3.0 8.0 0.00 0.00 0.00 84 1004.2
20260506034550 76 168 3.0 8.0 0.00 0.00 0.00 84 1004.0
20260506033049 76 176 3.0 8.0 0.00 0.00 0.00 83 1003.9
20260506031550 76 141 3.0 7.0 0.00 0.00 0.00 83 1003.6
20260506030052 77 157 3.0 7.0 0.00 0.00 0.00 82 1003.4
20260506024554 77 132 3.0 7.0 0.00 0.00 0.00 81 1003.2
20260506023045 77 153 3.0 6.0 0.00 0.00 0.00 81 1003.0
20260506021558 77 112 3.0 7.0 0.00 0.00 0.00 80 1002.7
20260506020044 78 187 2.0 5.0 0.00 0.00 0.00 79 1002.4
20260506014544 78 190 2.0 6.0 0.00 0.00 0.00 79 1002.2
20260506013053 79 178 2.0 4.0 0.00 0.00 0.00 78 1002.1
20260506011542 79 176 0.0 3.0 0.00 0.00 0.00 77 1002.3
20260506010040 80 176 1.0 3.0 0.00 0.00 0.00 77 1002.2
20260506004539 80 176 0.0 6.0 0.00 0.00 0.00 77 1002.2
20260506003038 81 171 3.0 4.0 0.00 0.00 0.00 77 1002.0
20260506001541 81 155 3.0 7.0 0.00 0.00 0.00 76 1002.1
20260506000040 81 155 2.0 8.0 0.00 0.00 0.00 76 1001.9
20260505234536 81 175 3.0 8.0 0.00 0.00 0.00 76 1001.7
20260505233038 81 146 3.0 8.0 0.00 0.00 0.00 76 1001.9
20260505231540 82 177 4.0 10.0 0.00 0.00 0.00 75 1001.8
20260505230037 82 194 2.0 8.0 0.00 0.00 0.00 76 1001.7
20260505224536 81 179 3.0 11.0 0.00 0.00 0.00 76 1001.6
20260505223035 81 122 4.0 10.0 0.00 0.00 0.00 76 1001.6
20260505221532 82 169 4.0 11.0 0.00 0.00 0.00 76 1001.5
20260505220034 82 133 5.0 13.0 0.00 0.00 0.00 76 1001.6
20260505214541 82 202 4.0 13.0 0.00 0.00 0.00 76 1001.8
20260505213025 82 196 6.0 18.0 0.00 0.00 0.00 77 1002.2
20260505211524 81 142 5.0 10.0 0.00 0.00 0.00 78 1002.2
20260505210021 81 199 4.0 10.0 0.00 0.00 0.00 78 1002.4
20260505204518 81 178 5.0 11.0 0.00 0.00 0.00 79 1002.7
20260505203015 81 190 5.0 12.0 0.00 0.00 0.00 79 1003.1
20260505201514 81 157 5.0 11.0 0.00 0.00 0.00 80 1003.2
20260505200013 80 203 6.0 12.0 0.00 0.00 0.00 80 1003.4
20260505194511 80 193 6.0 12.0 0.00 0.00 0.00 81 1003.4
20260505193010 80 193 7.0 12.0 0.00 0.00 0.00 81 1003.6
20260505191507 80 190 4.0 11.0 0.00 0.00 0.00 83 1003.8
20260505190007 79 206 6.0 11.0 0.00 0.00 0.00 83 1003.9
20260505184505 79 126 6.0 9.0 0.00 0.00 0.00 83 1004.0
20260505183107 78 141 4.0 13.0 0.00 0.00 0.00 84 1004.1
20260505181559 77 156 3.0 12.0 0.00 0.00 0.00 85 1004.3
20260505180058 77 205 3.0 10.0 0.00 0.00 0.00 86 1004.4
20260505174559 75 190 5.0 9.0 0.00 0.00 0.00 87 1004.8
20260505173050 74 210 3.0 7.0 0.00 0.00 0.00 88 1005.0
20260505171549 74 177 3.0 16.0 0.00 0.00 0.00 88 1004.9
20260505170044 73 157 1.0 8.0 0.00 0.00 0.00 88 1005.0
20260505164541 73 187 3.0 10.0 0.00 0.00 0.00 88 1005.0
20260505163039 72 205 2.0 10.0 0.00 0.00 0.00 89 1005.1
20260505161534 72 185 2.0 5.0 0.00 0.00 0.00 89 1005.1
20260505153026 71 180 2.0 10.0 0.00 0.00 0.00 89 1005.0
20260505151527 70 202 4.0 11.0 0.00 0.00 0.00 89 1005.0
20260505124523 69 215 3.0 14.0 0.00 0.00 0.00 89 1003.8
20260505123027 69 171 5.0 9.0 0.00 0.00 0.00 88 1003.7
20260505121521 69 136 4.0 10.0 0.00 0.00 0.00 88 1003.6
20260505120029 69 188 3.0 11.0 0.00 0.00 0.00 88 1003.5
20260505114519 69 181 3.0 8.0 0.00 0.00 0.00 88 1003.3
20260505113012 69 181 4.0 9.0 0.00 0.00 0.00 88 1003.3
20260505111517 69 166 4.0 10.0 0.00 0.00 0.00 88 1003.5